Location: Arboyeti
(42.1122°N, 44.6017°E)
Time: 04:41:37
(UTC+00:00)

Landsat 7 - Pass Details

Date: 19 April 2021
Orbit: 701 x 703 km, 98.0° (Epoch: 09 May)

Event Time Altitude Azimuth Distance (km) Brightness Sun altitude
Exits shadow 17:45:55 43° 151° (SSE) 977 4.1 -20.3°
Maximum altitude 17:47:26 77° 76° (ENE) 727 3.7 -20.5°
Drops below altitude 10° 17:52:12 10° 350° (N) 2,177 7.0 -21.2°
Sets 17:54:28 0° 349° (N) 3,100 7.9 -21.5°
